User: anonymous   Login
Location: Baili�vre
(50.0696°N, 4.2409°E)
Time: 18:12:55
(UTC+00:00)
Language:

deb Kosmos-1371 - Orbit

View from above orbital plane
View from above orbital plane
View from above satellite
View from above satellite

Ground track
Ground track

The orbit data is extracted from the following two-line orbital elements,

1 18509U 82051E   21340.95581156  .00000411  00000-0  10720-3 0  9998
2 18509  74.0057 255.0087 0009511 307.9336 176.6870 14.52632435837279
Epoch (UTC): 06 December 2021 22:56:22
Eccentricity: 0.0009511
inclination: 74.0057°
perigee height: 710 km
apogee height: 724 km
right ascension of ascending node: 255.0087°
argument of perigee: 307.9336°
revolutions per day: 14.52632435
mean anomaly at epoch: 176.6870°
orbit number at epoch: 83727

The dashed part of the orbit path shows where the satellite is in the earth's shadow,  

DLR